Regional Weather Roundup
Issued by NWS

Home | Current Version | Previous Version | Text Only | Print | Product List | Glossary Off
Versions: 1 2 3 4 5 6 7 8 9 10 11 12 13 14 15 16 17 18 19 20 21 22 23 24 25 26 27 28 29 30 31 32 33 34 35 36 37 38 39 40 41 42 43 44 45 46 47 48 49 50

184
ASUS43 KLOT 141903
RWRIL

ILLINOIS REGIONAL WEATHER ROUNDUP
NATIONAL WEATHER SERVICE CHICAGO/ROMEOVILLE IL
100 PM CST THU DEC 14 2017

NOTE: "FAIR" INDICATES FEW OR NO CLOUDS BELOW 12,000 FEET WITH NO
SIGNIFICANT WEATHER AND/OR OBSTRUCTIONS TO VISIBILITY.

* THESE STATIONS ARE NOT UNDER NWS QUALITY CONTROL. THEY ALSO MAY NOT
  REPORT WEATHER SUCH AS PRECIPITATION OR FOG.

ILZ001-002-007-009-015-016-024-142000-
NORTHWEST ILLINOIS

CITY           SKY/WX    TMP DP  RH WIND       PRES   REMARKS
MOLINE         MOSUNNY   28  15  58 CALM      30.07F
STERLING*      MOSUNNY   25  11  55 CALM      30.08
SAVANNA*       CLOUDY    25  10  52 CALM      30.08S
$$

ILZ003-004-008-010-011-017-018-142000-
NORTH CENTRAL ILLINOIS

CITY           SKY/WX    TMP DP  RH WIND       PRES   REMARKS
ROCKFORD       MOSUNNY   26  12  55 CALM      30.07F
FREEPORT*      SUNNY     25  12  58 CALM      30.07F
ROCHELLE*      SUNNY     25  11  55 N6        30.06S WCI  18
DE KALB*       SUNNY     25  12  59 N6        30.05S WCI  18
PERU*          CLOUDY    25   9  51 N3        30.07F
$$

ILZ005-006-012>014-019>023-142000-
NORTHEAST ILLINOIS

CITY           SKY/WX    TMP DP  RH WIND       PRES   REMARKS
CHICAGO-OHARE  PTSUNNY   27  11  51 NW5       30.04F WCI  22
CHICAGO-MIDWAY PTSUNNY   28  14  55 NW7       30.04F WCI  21
AURORA         SUNNY     26  11  52 N7        30.05F WCI  18
LANSING*       SUNNY     28  18  64 N3        30.04F
JOLIET*        SUNNY     29  12  49 NW7       30.06F WCI  21
WAUKEGAN       SUNNY     25  10  53 NW8       30.04F WCI  16
DUPAGE AIRPORT SUNNY     25  10  53 VRB5      30.04F WCI  19
KANKAKEE*      CLOUDY    28  12  51 CALM      30.06F
WHEELING       SUNNY     27  10  49 NW5       30.06F WCI  22
MORRIS*        MOSUNNY   28  11  50 CALM      30.05F
ROMEOVILLE*    SUNNY     27  10  47 NW3       30.04F
NORTHERLY ISL    N/A     27  15  61 MISG        N/A
$$

LMZ740>746-142000-
SOUTHERN LAKE MICHIGAN

STATION/POSITION SKY/WX   TEMP    WIND        PRES    VSBY  WAVE
                          AIR SEA DIR/SP/G                  HT/PER
                          (F)     (DEG/KT/KT) (MB)    (MI)  (FT/S)
HARRISON CRIB              25     330/ 13/ 15   N/A
BURNHAM HARBOR             26     360/  8/ 11   N/A
CALUMET HARBOR             27     330/  5/  9 1016.9F
BURNS HARBOR               27     240/ 11/ 13 1017.6F
MICHIGAN CITY              22     160/  9/ 11   N/A
$$

ILZ025>027-034>036-040-047-049-050-058-095>099-142000-
WEST-CENTRAL ILLINOIS

CITY           SKY/WX    TMP DP  RH WIND       PRES   REMARKS
QUINCY         CLOUDY    28  16  60 NW9       30.07F WCI  19
GALESBURG*     MOSUNNY   28  18  65 W3        30.08S
MACOMB*        MOSUNNY   30  18  60 CALM      30.09F
JACKSONVILLE*  CLOUDY    28  16  60 W3        30.08F
PITTSFIELD*    CLOUDY    30  17  60 CALM      30.09F
$$

ILZ028>032-037-038-041>044-048-051>054-059>061-142000-
CENTRAL ILLINOIS

CITY           SKY/WX    TMP DP  RH WIND       PRES   REMARKS
PONTIAC        MOSUNNY   28  13  52 CALM      30.07F
BLOOMINGTON    MOSUNNY   30  15  53 VRB5      30.05F WCI  25
DECATUR        CLOUDY    31  17  56 W3        30.06F
PEORIA         PTSUNNY   30  13  49 NW3       30.07F
LACON*         PTSUNNY   26  11  53 NW3       30.07F
LINCOLN*       MOSUNNY   31  16  54 CALM      30.07F
SPRINGFIELD    CLOUDY    32  18  56 NW6       30.08S WCI  26
TAYLORVILLE    CLOUDY    30  17  57 CALM      30.08S
$$

ILZ033-039-045-046-055>057-062-063-142000-
EAST-CENTRAL ILLINOIS

CITY           SKY/WX    TMP DP  RH WIND       PRES   REMARKS
CHAMPAIGN      CLOUDY    30  18  60 CALM      30.05F
DANVILLE*      CLOUDY    30  18  60 CALM      30.02F
RANTOUL*       PTSUNNY   32  20  60 NW3       30.04F
MATTOON        CLOUDY    30  19  63 CALM      30.04F
PARIS*         CLOUDY    31  19  61 NE5       30.06S WCI  26
$$

ILZ079-100>102-142000-
SOUTHWEST ILLINOIS

CITY           SKY/WX    TMP DP  RH WIND       PRES   REMARKS
ALTON          CLOUDY    30  19  64 NW6       30.09F WCI  24
BELLEVILLE     CLOUDY    32  17  54 N6        30.07F WCI  27
CAHOKIA*       CLOUDY    32  16  51 N3        30.09F
SPARTA*        CLOUDY    32  21  65 NW7       30.09S WCI  25
$$

ILZ064>066-069>071-074>076-080>082-084>086-088>090-092>094-142000-
SOUTH-CENTRAL ILLINOIS

CITY           SKY/WX    TMP DP  RH WIND       PRES   REMARKS
CARBONDALE     CLOUDY    34  21  59 NW8       30.08S WCI  27
CAIRO*         CLOUDY    35  24  63 N7        30.07F WCI  29
EFFINGHAM*     CLOUDY    32  20  61 N3        30.09S
MARION         CLOUDY    34  19  55 NW9       30.08S WCI  26
MT. VERNON     CLOUDY    33  19  56 CALM      30.08S
CENTRALIA*     CLOUDY    33  21  60 N6        30.07S WCI  28
SALEM*         CLOUDY    34  19  55 CALM      30.07S
METROPOLIS*    CLOUDY    35  22  61 NW3       30.07S
$$

ILZ067-068-072-073-078-083-087-091-142000-
SOUTHEAST ILLINOIS

CITY           SKY/WX    TMP DP  RH WIND       PRES   REMARKS
LAWRENCEVILLE  CLOUDY    34  21  59 NE10      30.06F WCI  26
FLORA*         CLOUDY    34  21  60 N5        30.08S WCI  29
FAIRFIELD*     CLOUDY    33  20  59 CALM      30.06S
HARRISBURG*    CLOUDY    34  21  58 CALM      30.08R
ROBINSON*      CLOUDY    32  19  59 N3        30.07F
CARMI*         CLOUDY    33  20  58 N6        30.06S WCI  28
$$

ABBREVIATIONS USED IN REMARKS
   TC - TEMPERATURE IN CELSIUS
  WCI - WIND CHILL INDEX
   HX - HEAT INDEX
  VSB - VISIBILITY
$$





USA.gov is the U.S. government's official web portal to all federal, state and local government web resources and services.